START_TIME,STEP,MOV.,M35,t_acc.,PL05,t_acc.,PL06,t_acc.,PL07,t_acc.
1979-08-05 09:00:22.500 ,0,0,0.,4.8,22.,4.8,9.,4.8,7.,4.8
1979-08-05 09:00:27.300 ,0,0,0.,4.8,40.,4.8,12.,4.8,7.,4.8
1979-08-05 09:00:32.100 ,0,0,0.,4.8,39.,4.8,12.,4.8,4.,4.8
1979-08-05 09:00:36.900 ,0,0,0.,4.8,32.,4.8,7.,4.8,8.,4.8
1979-08-05 09:00:41.700 ,0,0,0.,4.8,44.,4.8,4.,4.8,5.,4.8
1979-08-05 09:00:46.500 ,0,0,1.,4.8,29.,4.8,8.,4.8,6.,4.8
1979-08-05 09:00:51.300 ,0,0,0.,4.8,30.,4.8,7.,4.8,8.,4.8
1979-08-05 09:00:56.100 ,0,0,1.,4.8,44.,4.8,13.,4.8,6.,4.8
1979-08-05 09:01:00.900 ,0,0,0.,4.8,27.,4.8,8.,4.8,9.,4.8
1979-08-05 09:01:05.700 ,0,0,0.,4.8,30.,4.8,10.,4.8,3.,4.8
1979-08-05 09:01:10.500 ,0,0,0.,4.8,22.,4.8,10.,4.8,7.,4.8
1979-08-05 09:01:15.300 ,0,0,0.,4.8,30.,4.8,5.,4.8,6.,4.8
1979-08-05 09:01:20.100 ,0,0,0.,4.8,24.,4.8,6.,4.8,4.,4.8
1979-08-05 09:01:24.900 ,0,0,2.,4.8,15.,4.8,6.,4.8,4.,4.8
1979-08-05 09:01:29.700 ,0,0,0.,4.8,33.,4.8,7.,4.8,5.,4.8
1979-08-05 09:01:34.500 ,1,0,3.,4.8,19.,4.8,5.,4.8,2.,4.8
1979-08-05 09:01:39.300 ,1,0,0.,4.8,29.,4.8,13.,4.8,7.,4.8
1979-08-05 09:01:44.100 ,1,0,1.,4.8,41.,4.8,5.,4.8,2.,4.8
1979-08-05 09:01:48.900 ,1,0,0.,4.8,40.,4.8,10.,4.8,6.,4.8
1979-08-05 09:01:53.700 ,1,0,0.,4.8,25.,4.8,12.,4.8,8.,4.8
1979-08-05 09:01:58.500 ,1,0,0.,4.8,30.,4.8,7.,4.8,8.,4.8
1979-08-05 09:02:03.300 ,1,0,0.,4.8,30.,4.8,10.,4.8,2.,4.8
1979-08-05 09:02:08.100 ,1,0,0.,4.8,20.,4.8,7.,4.8,4.,4.8
1979-08-05 09:02:12.900 ,1,0,0.,4.8,21.,4.8,8.,4.8,2.,4.8
1979-08-05 09:02:17.700 ,1,0,0.,4.8,22.,4.8,4.,4.8,5.,4.8
1979-08-05 09:02:22.500 ,2,0,0.,4.8,28.,4.8,6.,4.8,3.,4.8
1979-08-05 09:02:27.300 ,2,0,0.,4.8,16.,4.8,5.,4.8,3.,4.8
1979-08-05 09:02:32.100 ,2,0,0.,4.8,11.,4.8,2.,4.8,2.,4.8
1979-08-05 09:02:36.900 ,2,0,0.,4.8,13.,4.8,0.,4.8,1.,4.8
1979-08-05 09:02:41.700 ,2,0,0.,4.8,9.,4.8,1.,4.8,1.,4.8
1979-08-05 09:02:46.500 ,2,0,0.,4.8,11.,4.8,0.,4.8,0.,4.8
1979-08-05 09:02:51.300 ,2,0,0.,4.8,5.,4.8,4.,4.8,1.,4.8
1979-08-05 09:02:56.100 ,2,0,0.,4.8,10.,4.8,1.,4.8,4.,4.8
1979-08-05 09:03:00.900 ,2,0,0.,4.8,8.,4.8,3.,4.8,3.,4.8
1979-08-05 09:03:05.700 ,2,0,0.,4.8,12.,4.8,2.,4.8,0.,4.8
1979-08-05 09:03:10.500 ,3,0,0.,4.8,10.,4.8,3.,4.8,4.,4.8
1979-08-05 09:03:15.300 ,3,0,0.,4.8,8.,4.8,2.,4.8,2.,4.8
1979-08-05 09:03:20.100 ,3,0,0.,4.8,7.,4.8,0.,4.8,0.,4.8
1979-08-05 09:03:24.900 ,3,0,0.,4.8,11.,4.8,1.,4.8,0.,4.8
1979-08-05 09:03:29.700 ,3,0,0.,4.8,7.,4.8,0.,4.8,0.,4.8
1979-08-05 09:03:34.500 ,3,0,0.,4.8,4.,4.8,1.,4.8,1.,4.8
1979-08-05 09:03:39.300 ,3,0,0.,4.8,3.,4.8,0.,4.8,0.,4.8
1979-08-05 09:03:44.100 ,3,0,0.,4.8,7.,4.8,0.,4.8,2.,4.8
1979-08-05 09:03:48.900 ,3,0,0.,4.8,4.,4.8,0.,4.8,1.,4.8
1979-08-05 09:03:53.700 ,3,0,0.,4.8,5.,4.8,0.,4.8,0.,4.8
1979-08-05 09:03:58.500 ,4,0,0.,4.8,4.,4.8,0.,4.8,1.,4.8
1979-08-05 09:04:03.300 ,4,0,0.,4.8,3.,4.8,0.,4.8,0.,4.8
1979-08-05 09:04:08.100 ,4,0,0.,4.8,1.,4.8,1.,4.8,1.,4.8
1979-08-05 09:04:12.900 ,4,0,0.,4.8,2.,4.8,1.,4.8,0.,4.8
1979-08-05 09:04:17.700 ,4,0,0.,4.8,6.,4.8,1.,4.8,0.,4.8
1979-08-05 09:04:22.500 ,4,0,0.,4.8,4.,4.8,0.,4.8,1.,4.8
1979-08-05 09:04:27.300 ,4,0,0.,4.8,4.,4.8,0.,4.8,0.,4.8
1979-08-05 09:04:32.100 ,4,0,0.,4.8,1.,4.8,1.,4.8,0.,4.8
1979-08-05 09:04:36.900 ,4,0,0.,4.8,3.,4.8,0.,4.8,0.,4.8
1979-08-05 09:04:41.700 ,4,0,0.,4.8,5.,4.8,0.,4.8,0.,4.8
1979-08-05 09:04:46.500 ,5,0,0.,4.8,4.,4.8,1.,4.8,1.,4.8
1979-08-05 09:04:51.300 ,5,0,0.,4.8,1.,4.8,1.,4.8,0.,4.8
1979-08-05 09:04:56.100 ,5,0,0.,4.8,3.,4.8,0.,4.8,0.,4.8
1979-08-05 09:05:00.900 ,5,0,0.,4.8,5.,4.8,0.,4.8,0.,4.8
1979-08-05 09:05:05.700 ,5,0,0.,4.8,2.,4.8,1.,4.8,0.,4.8
1979-08-05 09:05:10.500 ,5,0,0.,4.8,3.,4.8,2.,4.8,1.,4.8
1979-08-05 09:05:15.300 ,5,0,0.,4.8,0.,4.8,0.,4.8,0.,4.8
1979-08-05 09:05:20.100 ,5,0,0.,4.8,2.,4.8,1.,4.8,0.,4.8
1979-08-05 09:05:24.900 ,5,0,0.,4.8,3.,4.8,2.,4.8,0.,4.8
1979-08-05 09:05:29.700 ,5,0,0.,4.8,3.,4.8,0.,4.8,0.,4.8
1979-08-05 09:05:34.500 ,6,0,0.,4.8,2.,4.8,0.,4.8,0.,4.8
1979-08-05 09:05:39.300 ,6,0,0.,4.8,1.,4.8,1.,4.8,0.,4.8
1979-08-05 09:05:44.100 ,6,0,0.,4.8,8.,4.8,2.,4.8,0.,4.8
1979-08-05 09:05:48.900 ,6,0,0.,4.8,4.,4.8,0.,4.8,1.,4.8
1979-08-05 09:05:53.700 ,6,0,0.,4.8,3.,4.8,1.,4.8,0.,4.8
1979-08-05 09:05:58.500 ,6,0,0.,4.8,3.,4.8,0.,4.8,0.,4.8
1979-08-05 09:06:03.300 ,6,0,0.,4.8,3.,4.8,0.,4.8,0.,4.8
1979-08-05 09:06:08.100 ,6,0,0.,4.8,7.,4.8,0.,4.8,0.,4.8
1979-08-05 09:06:12.900 ,6,0,0.,4.8,6.,4.8,0.,4.8,0.,4.8
1979-08-05 09:06:17.700 ,6,0,0.,4.8,3.,4.8,2.,4.8,1.,4.8
1979-08-05 09:06:22.500 ,7,0,0.,4.8,65536.,4.8,1.,4.8,0.,4.8
1979-08-05 09:06:27.300 ,7,0,,0,,0,,0,,0
1979-08-05 09:06:32.100 ,7,0,,0,,0,,0,,0
1979-08-05 09:06:36.900 ,7,0,0.,4.8,1.,4.8,1.,4.8,0.,4.8
1979-08-05 09:06:41.700 ,7,0,0.,4.8,1.,4.8,0.,4.8,0.,4.8
1979-08-05 09:06:46.500 ,7,0,0.,4.8,2.,4.8,0.,4.8,0.,4.8
1979-08-05 09:06:51.300 ,7,0,0.,4.8,1.,4.8,0.,4.8,0.,4.8
1979-08-05 09:06:56.100 ,7,0,0.,4.8,0.,4.8,0.,4.8,0.,4.8
1979-08-05 09:07:00.900 ,7,0,0.,4.8,1.,4.8,0.,4.8,0.,4.8
1979-08-05 09:07:05.700 ,7,0,0.,4.8,1.,4.8,0.,4.8,0.,4.8
1979-08-05 09:07:10.500 ,3,1,0.,4.8,0.,4.8,0.,4.8,0.,4.8
1979-08-05 09:07:15.300 ,3,1,0.,4.8,6.,4.8,2.,4.8,2.,4.8
1979-08-05 09:07:20.100 ,3,1,0.,4.8,1.,4.8,1.,4.8,0.,4.8
1979-08-05 09:07:24.900 ,3,1,0.,4.8,2.,4.8,0.,4.8,1.,4.8
1979-08-05 09:07:29.700 ,3,1,0.,4.8,1.,4.8,0.,4.8,0.,4.8
1979-08-05 09:07:34.500 ,0,1,0.,4.8,6.,4.8,1.,4.8,3.,4.8
1979-08-05 09:07:39.300 ,0,1,0.,4.8,10.,4.8,1.,4.8,0.,4.8
1979-08-05 09:07:44.100 ,0,1,0.,4.8,24.,4.8,6.,4.8,0.,4.8
1979-08-05 09:07:48.900 ,0,1,0.,4.8,15.,4.8,5.,4.8,4.,4.8
1979-08-05 09:07:53.700 ,0,1,0.,4.8,22.,4.8,3.,4.8,1.,4.8
1979-08-05 09:07:58.500 ,4,1,0.,4.8,19.,4.8,0.,4.8,1.,4.8
1979-08-05 09:08:03.300 ,4,1,1.,4.8,14.,4.8,9.,4.8,1.,4.8
1979-08-05 09:08:08.100 ,4,1,0.,4.8,6.,4.8,2.,4.8,1.,4.8
1979-08-05 09:08:12.900 ,4,1,0.,4.8,2.,4.8,0.,4.8,1.,4.8
1979-08-05 09:08:17.700 ,4,1,0.,4.8,1.,4.8,1.,4.8,0.,4.8
1979-08-05 09:08:22.500 ,7,1,0.,4.8,1.,4.8,1.,4.8,0.,4.8
1979-08-05 09:08:27.300 ,7,1,0.,4.8,3.,4.8,1.,4.8,0.,4.8
1979-08-05 09:08:32.100 ,7,1,0.,4.8,2.,4.8,0.,4.8,0.,4.8
1979-08-05 09:08:36.900 ,7,1,0.,4.8,3.,4.8,0.,4.8,1.,4.8
1979-08-05 09:08:41.700 ,7,1,0.,4.8,1.,4.8,0.,4.8,0.,4.8
1979-08-05 09:08:46.500 ,3,1,0.,4.8,0.,4.8,0.,4.8,0.,4.8
1979-08-05 09:08:51.300 ,3,1,0.,4.8,5.,4.8,0.,4.8,0.,4.8
1979-08-05 09:08:56.100 ,3,1,0.,4.8,2.,4.8,1.,4.8,2.,4.8
1979-08-05 09:09:00.900 ,3,1,0.,4.8,0.,4.8,1.,4.8,0.,4.8
1979-08-05 09:09:05.700 ,3,1,0.,4.8,2.,4.8,0.,4.8,1.,4.8
1979-08-05 09:09:10.500 ,0,1,0.,4.8,10.,4.8,2.,4.8,1.,4.8
1979-08-05 09:09:15.300 ,0,1,0.,4.8,5.,4.8,3.,4.8,0.,4.8
1979-08-05 09:09:20.100 ,0,1,0.,4.8,9.,4.8,2.,4.8,1.,4.8
1979-08-05 09:09:24.900 ,0,1,0.,4.8,10.,4.8,1.,4.8,0.,4.8
1979-08-05 09:09:29.700 ,0,1,0.,4.8,14.,4.8,1.,4.8,0.,4.8
1979-08-05 09:09:34.500 ,4,1,0.,4.8,11.,4.8,3.,4.8,2.,4.8
1979-08-05 09:09:39.300 ,4,1,0.,4.8,9.,4.8,2.,4.8,0.,4.8
1979-08-05 09:09:44.100 ,4,1,0.,4.8,5.,4.8,2.,4.8,1.,4.8
1979-08-05 09:09:48.900 ,4,1,0.,4.8,1.,4.8,1.,4.8,0.,4.8
1979-08-05 09:09:53.700 ,4,1,0.,4.8,5.,4.8,1.,4.8,0.,4.8
1979-08-05 09:09:58.500 ,7,1,0.,4.8,3.,4.8,0.,4.8,1.,4.8
1979-08-05 09:10:03.300 ,7,1,0.,4.8,7.,4.8,0.,4.8,1.,4.8
1979-08-05 09:10:08.100 ,7,1,0.,4.8,5.,4.8,0.,4.8,1.,4.8
1979-08-05 09:10:12.900 ,7,1,0.,4.8,4.,4.8,1.,4.8,1.,4.8
1979-08-05 09:10:17.700 ,7,1,0.,4.8,0.,4.8,1.,4.8,0.,4.8
1979-08-05 09:10:22.500 ,3,1,0.,4.8,1.,4.8,0.,4.8,0.,4.8
1979-08-05 09:10:27.300 ,3,1,0.,4.8,7.,4.8,0.,4.8,0.,4.8
1979-08-05 09:10:32.100 ,3,1,0.,4.8,3.,4.8,1.,4.8,0.,4.8
1979-08-05 09:10:36.900 ,3,1,0.,4.8,3.,4.8,1.,4.8,0.,4.8
1979-08-05 09:10:41.700 ,3,1,0.,4.8,2.,4.8,1.,4.8,0.,4.8
1979-08-05 09:10:46.500 ,0,1,0.,4.8,2.,4.8,0.,4.8,0.,4.8
1979-08-05 09:10:51.300 ,0,1,0.,4.8,2.,4.8,3.,4.8,0.,4.8
1979-08-05 09:10:56.100 ,0,1,0.,4.8,9.,4.8,2.,4.8,2.,4.8
1979-08-05 09:11:00.900 ,0,1,0.,4.8,13.,4.8,1.,4.8,2.,4.8
1979-08-05 09:11:05.700 ,0,1,0.,4.8,12.,4.8,0.,4.8,1.,4.8
1979-08-05 09:11:10.500 ,4,1,0.,4.8,8.,4.8,6.,4.8,1.,4.8
1979-08-05 09:11:15.300 ,4,1,0.,4.8,8.,4.8,1.,4.8,1.,4.8
1979-08-05 09:11:20.100 ,4,1,0.,4.8,7.,4.8,0.,4.8,1.,4.8
1979-08-05 09:11:24.900 ,4,1,0.,4.8,5.,4.8,0.,4.8,0.,4.8
1979-08-05 09:11:29.700 ,4,1,0.,4.8,4.,4.8,0.,4.8,0.,4.8
1979-08-05 09:11:34.500 ,7,1,0.,4.8,2.,4.8,0.,4.8,1.,4.8
1979-08-05 09:11:39.300 ,7,1,0.,4.8,2.,4.8,0.,4.8,1.,4.8
1979-08-05 09:11:44.100 ,7,1,0.,4.8,6.,4.8,1.,4.8,0.,4.8
1979-08-05 09:11:48.900 ,7,1,0.,4.8,3.,4.8,0.,4.8,0.,4.8
1979-08-05 09:11:53.700 ,7,1,0.,4.8,1.,4.8,0.,4.8,0.,4.8
1979-08-05 09:11:58.500 ,3,1,0.,4.8,1.,4.8,0.,4.8,0.,4.8
1979-08-05 09:12:03.300 ,3,1,0.,4.8,2.,4.8,0.,4.8,1.,4.8
1979-08-05 09:12:08.100 ,3,1,0.,4.8,2.,4.8,0.,4.8,0.,4.8
1979-08-05 09:12:12.900 ,3,1,0.,4.8,1.,4.8,0.,4.8,0.,4.8
1979-08-05 09:12:17.700 ,3,1,0.,4.8,2.,4.8,0.,4.8,0.,4.8
1979-08-05 09:12:22.500 ,0,1,0.,4.8,2.,4.8,0.,4.8,0.,4.8
1979-08-05 09:12:27.300 ,0,1,0.,4.8,3.,4.8,0.,4.8,0.,4.8
1979-08-05 09:12:32.100 ,0,1,0.,4.8,5.,4.8,1.,4.8,1.,4.8
1979-08-05 09:12:36.900 ,0,1,0.,4.8,1.,4.8,0.,4.8,1.,4.8
1979-08-05 09:12:41.700 ,0,1,0.,4.8,7.,4.8,2.,4.8,3.,4.8
1979-08-05 09:12:46.500 ,4,1,0.,4.8,6.,4.8,0.,4.8,1.,4.8
1979-08-05 09:12:51.300 ,4,1,0.,4.8,2.,4.8,2.,4.8,0.,4.8
1979-08-05 09:12:56.100 ,4,1,0.,4.8,4.,4.8,0.,4.8,0.,4.8
1979-08-05 09:13:00.900 ,4,1,0.,4.8,2.,4.8,0.,4.8,0.,4.8
1979-08-05 09:13:05.700 ,4,1,0.,4.8,1.,4.8,0.,4.8,0.,4.8
1979-08-05 09:13:10.500 ,7,1,0.,4.8,1.,4.8,0.,4.8,0.,4.8
1979-08-05 09:13:15.300 ,7,1,0.,4.8,6.,4.8,0.,4.8,0.,4.8
1979-08-05 09:13:20.100 ,7,1,0.,4.8,1.,4.8,0.,4.8,0.,4.8
1979-08-05 09:13:24.900 ,7,1,0.,4.8,3.,4.8,1.,4.8,0.,4.8
1979-08-05 09:13:29.700 ,7,1,0.,4.8,1.,4.8,0.,4.8,0.,4.8
1979-08-05 09:13:34.500 ,3,1,0.,4.8,0.,4.8,1.,4.8,0.,4.8
1979-08-05 09:13:39.300 ,3,1,0.,4.8,3.,4.8,0.,4.8,0.,4.8
1979-08-05 09:13:44.100 ,3,1,0.,4.8,3.,4.8,0.,4.8,0.,4.8
1979-08-05 09:13:48.900 ,3,1,0.,4.8,2.,4.8,1.,4.8,0.,4.8
1979-08-05 09:13:53.700 ,3,1,0.,4.8,4.,4.8,0.,4.8,0.,4.8
1979-08-05 09:13:58.500 ,0,1,0.,4.8,2.,4.8,1.,4.8,1.,4.8
1979-08-05 09:14:03.300 ,0,1,0.,4.8,1.,4.8,1.,4.8,0.,4.8
1979-08-05 09:14:08.100 ,0,1,0.,4.8,5.,4.8,0.,4.8,0.,4.8
1979-08-05 09:14:12.900 ,0,1,0.,4.8,10.,4.8,0.,4.8,0.,4.8
1979-08-05 09:14:17.700 ,0,1,0.,4.8,2.,4.8,2.,4.8,1.,4.8
1979-08-05 09:14:22.500 ,4,1,0.,4.8,6.,4.8,0.,4.8,0.,4.8
1979-08-05 09:14:27.300 ,4,1,0.,4.8,8.,4.8,2.,4.8,0.,4.8
1979-08-05 09:14:32.100 ,4,1,0.,4.8,4.,4.8,0.,4.8,0.,4.8
1979-08-05 09:14:36.900 ,4,1,0.,4.8,6.,4.8,0.,4.8,1.,4.8
1979-08-05 09:14:41.700 ,4,1,0.,4.8,1.,4.8,1.,4.8,1.,4.8
1979-08-05 09:14:46.500 ,7,1,0.,4.8,2.,4.8,0.,4.8,0.,4.8
1979-08-05 09:14:51.300 ,7,1,0.,4.8,1.,4.8,1.,4.8,0.,4.8
1979-08-05 09:14:56.100 ,7,1,0.,4.8,2.,4.8,3.,4.8,0.,4.8
1979-08-05 09:15:00.900 ,7,1,0.,4.8,2.,4.8,0.,4.8,0.,4.8
1979-08-05 09:15:05.700 ,7,1,0.,4.8,2.,4.8,0.,4.8,0.,4.8
1979-08-05 09:15:10.500 ,3,1,0.,4.8,4.,4.8,0.,4.8,0.,4.8
1979-08-05 09:15:15.300 ,3,1,0.,4.8,1.,4.8,0.,4.8,1.,4.8
1979-08-05 09:15:20.100 ,3,1,0.,4.8,4.,4.8,0.,4.8,0.,4.8
1979-08-05 09:15:24.900 ,3,1,0.,4.8,2.,4.8,1.,4.8,0.,4.8
1979-08-05 09:15:29.700 ,3,1,0.,4.8,4.,4.8,0.,4.8,0.,4.8
1979-08-05 09:15:34.500 ,0,1,0.,4.8,4.,4.8,1.,4.8,0.,4.8
1979-08-05 09:15:39.300 ,0,1,0.,4.8,3.,4.8,0.,4.8,0.,4.8
1979-08-05 09:15:44.100 ,0,1,0.,4.8,1.,4.8,1.,4.8,0.,4.8
1979-08-05 09:15:48.900 ,0,1,0.,4.8,7.,4.8,1.,4.8,1.,4.8
1979-08-05 09:15:53.700 ,0,1,0.,4.8,8.,4.8,1.,4.8,1.,4.8
1979-08-05 09:15:58.500 ,4,1,0.,4.8,9.,4.8,2.,4.8,0.,4.8
1979-08-05 09:16:03.300 ,4,1,0.,4.8,6.,4.8,1.,4.8,0.,4.8
1979-08-05 09:16:08.100 ,4,1,0.,4.8,3.,4.8,0.,4.8,2.,4.8
1979-08-05 09:16:12.900 ,4,1,0.,4.8,5.,4.8,1.,4.8,0.,4.8
1979-08-05 09:16:17.700 ,4,1,0.,4.8,3.,4.8,0.,4.8,0.,4.8
1979-08-05 09:16:22.500 ,7,1,0.,4.8,3.,4.8,0.,4.8,0.,4.8
1979-08-05 09:16:27.300 ,7,1,0.,4.8,1.,4.8,1.,4.8,0.,4.8
1979-08-05 09:16:32.100 ,7,1,0.,4.8,4.,4.8,0.,4.8,0.,4.8
1979-08-05 09:16:36.900 ,7,1,0.,4.8,1.,4.8,0.,4.8,0.,4.8
1979-08-05 09:16:41.700 ,7,1,0.,4.8,0.,4.8,0.,4.8,0.,4.8
1979-08-05 09:16:46.500 ,3,1,0.,4.8,1.,4.8,0.,4.8,0.,4.8
1979-08-05 09:16:51.300 ,3,1,0.,4.8,3.,4.8,0.,4.8,0.,4.8
1979-08-05 09:16:56.100 ,3,1,0.,4.8,1.,4.8,0.,4.8,0.,4.8
1979-08-05 09:17:00.900 ,3,1,0.,4.8,1.,4.8,0.,4.8,0.,4.8
1979-08-05 09:17:05.700 ,3,1,0.,4.8,2.,4.8,1.,4.8,0.,4.8
1979-08-05 09:17:10.500 ,0,1,0.,4.8,6.,4.8,0.,4.8,0.,4.8
1979-08-05 09:17:15.300 ,0,1,0.,4.8,4.,4.8,1.,4.8,1.,4.8
1979-08-05 09:17:20.100 ,0,1,0.,4.8,2.,4.8,0.,4.8,0.,4.8
1979-08-05 09:17:24.900 ,0,1,0.,4.8,6.,4.8,0.,4.8,0.,4.8
1979-08-05 09:17:29.700 ,0,1,0.,4.8,7.,4.8,1.,4.8,0.,4.8
1979-08-05 09:17:34.500 ,0,0,0.,4.8,10.,4.8,0.,4.8,0.,4.8
1979-08-05 09:17:39.300 ,0,0,0.,4.8,3.,4.8,1.,4.8,0.,4.8
1979-08-05 09:17:44.100 ,0,0,0.,4.8,3.,4.8,1.,4.8,0.,4.8
1979-08-05 09:17:48.900 ,0,0,0.,4.8,2.,4.8,0.,4.8,0.,4.8
1979-08-05 09:17:53.700 ,0,0,0.,4.8,5.,4.8,1.,4.8,0.,4.8
1979-08-05 09:17:58.500 ,0,0,0.,4.8,3.,4.8,0.,4.8,0.,4.8
1979-08-05 09:18:03.300 ,0,0,0.,4.8,1.,4.8,0.,4.8,1.,4.8
1979-08-05 09:18:08.100 ,0,0,0.,4.8,5.,4.8,1.,4.8,1.,4.8
1979-08-05 09:18:12.900 ,0,0,0.,4.8,4.,4.8,0.,4.8,0.,4.8
1979-08-05 09:18:17.700 ,0,0,0.,4.8,2.,4.8,0.,4.8,0.,4.8
1979-08-05 09:18:22.500 ,5,0,0.,4.8,1.,4.8,1.,4.8,0.,4.8
1979-08-05 09:18:27.300 ,5,0,0.,4.8,1.,4.8,3.,4.8,0.,4.8
1979-08-05 09:18:32.100 ,5,0,0.,4.8,0.,4.8,2.,4.8,0.,4.8
1979-08-05 09:18:36.900 ,5,0,0.,4.8,1.,4.8,1.,4.8,1.,4.8
1979-08-05 09:18:41.700 ,5,0,0.,4.8,0.,4.8,2.,4.8,1.,4.8
1979-08-05 09:18:46.500 ,5,0,0.,4.8,0.,4.8,0.,4.8,0.,4.8
1979-08-05 09:18:51.300 ,5,0,0.,4.8,3.,4.8,1.,4.8,0.,4.8
1979-08-05 09:18:56.100 ,5,0,0.,4.8,2.,4.8,0.,4.8,0.,4.8
1979-08-05 09:19:00.900 ,5,0,0.,4.8,1.,4.8,1.,4.8,1.,4.8
1979-08-05 09:19:05.700 ,5,0,0.,4.8,1.,4.8,0.,4.8,1.,4.8
1979-08-05 09:19:10.500 ,4,0,0.,4.8,1.,4.8,0.,4.8,0.,4.8
1979-08-05 09:19:15.300 ,4,0,0.,4.8,1.,4.8,1.,4.8,0.,4.8
1979-08-05 09:19:20.100 ,4,0,0.,4.8,3.,4.8,0.,4.8,0.,4.8
1979-08-05 09:19:24.900 ,4,0,0.,4.8,2.,4.8,0.,4.8,2.,4.8
1979-08-05 09:19:29.700 ,4,0,0.,4.8,1.,4.8,1.,4.8,1.,4.8
1979-08-05 09:19:34.500 ,4,0,0.,4.8,1.,4.8,1.,4.8,2.,4.8
1979-08-05 09:19:39.300 ,4,0,0.,4.8,1.,4.8,0.,4.8,0.,4.8
1979-08-05 09:19:44.100 ,4,0,0.,4.8,1.,4.8,0.,4.8,0.,4.8
1979-08-05 09:19:48.900 ,4,0,0.,4.8,1.,4.8,0.,4.8,0.,4.8
1979-08-05 09:19:53.700 ,4,0,0.,4.8,0.,4.8,0.,4.8,1.,4.8
1979-08-05 09:19:58.500 ,3,0,0.,4.8,1.,4.8,0.,4.8,0.,4.8
1979-08-05 09:20:03.300 ,3,0,0.,4.8,1.,4.8,1.,4.8,0.,4.8
1979-08-05 09:20:08.100 ,3,0,0.,4.8,3.,4.8,0.,4.8,1.,4.8
1979-08-05 09:20:12.900 ,3,0,0.,4.8,1.,4.8,0.,4.8,0.,4.8
1979-08-05 09:20:17.700 ,3,0,0.,4.8,1.,4.8,1.,4.8,0.,4.8
1979-08-05 09:20:22.500 ,3,0,0.,4.8,4.,4.8,1.,4.8,0.,4.8
1979-08-05 09:20:27.300 ,3,0,0.,4.8,4.,4.8,1.,4.8,0.,4.8
1979-08-05 09:20:32.100 ,3,0,0.,4.8,4.,4.8,0.,4.8,0.,4.8
1979-08-05 09:20:36.900 ,3,0,0.,4.8,0.,4.8,0.,4.8,0.,4.8
1979-08-05 09:20:41.700 ,3,0,0.,4.8,1.,4.8,0.,4.8,1.,4.8
1979-08-05 09:20:46.500 ,2,0,0.,4.8,1.,4.8,1.,4.8,1.,4.8
1979-08-05 09:20:51.300 ,2,0,0.,4.8,4.,4.8,1.,4.8,0.,4.8
1979-08-05 09:20:56.100 ,2,0,0.,4.8,1.,4.8,0.,4.8,3.,4.8
1979-08-05 09:21:00.900 ,2,0,0.,4.8,1.,4.8,0.,4.8,0.,4.8
1979-08-05 09:21:05.700 ,2,0,0.,4.8,1.,4.8,1.,4.8,1.,4.8
1979-08-05 09:21:10.500 ,2,0,0.,4.8,2.,4.8,0.,4.8,0.,4.8
1979-08-05 09:21:15.300 ,2,0,0.,4.8,4.,4.8,0.,4.8,0.,4.8
1979-08-05 09:21:20.100 ,2,0,0.,4.8,3.,4.8,0.,4.8,0.,4.8
1979-08-05 09:21:24.900 ,2,0,0.,4.8,4.,4.8,0.,4.8,0.,4.8
1979-08-05 09:21:29.700 ,2,0,0.,4.8,9.,4.8,1.,4.8,1.,4.8
1979-08-05 09:21:34.500 ,1,0,0.,4.8,2.,4.8,0.,4.8,0.,4.8
1979-08-05 09:21:39.300 ,1,0,0.,4.8,4.,4.8,0.,4.8,0.,4.8
1979-08-05 09:21:44.100 ,1,0,0.,4.8,4.,4.8,0.,4.8,1.,4.8
1979-08-05 09:21:48.900 ,1,0,0.,4.8,2.,4.8,1.,4.8,0.,4.8
1979-08-05 09:21:53.700 ,1,0,0.,4.8,6.,4.8,0.,4.8,0.,4.8
1979-08-05 09:21:58.500 ,1,0,0.,4.8,4.,4.8,0.,4.8,1.,4.8
1979-08-05 09:22:03.300 ,1,0,0.,4.8,6.,4.8,0.,4.8,0.,4.8
1979-08-05 09:22:08.100 ,1,0,0.,4.8,4.,4.8,2.,4.8,0.,4.8
1979-08-05 09:22:12.900 ,1,0,0.,4.8,10.,4.8,0.,4.8,0.,4.8
1979-08-05 09:22:17.700 ,1,0,0.,4.8,6.,4.8,0.,4.8,1.,4.8
1979-08-05 09:22:22.500 ,0,0,0.,4.8,4.,4.8,4.,4.8,1.,4.8
1979-08-05 09:22:27.300 ,0,0,0.,4.8,4.,4.8,1.,4.8,1.,4.8
1979-08-05 09:22:32.100 ,0,0,0.,4.8,9.,4.8,0.,4.8,1.,4.8
1979-08-05 09:22:36.900 ,0,0,0.,4.8,6.,4.8,0.,4.8,0.,4.8
1979-08-05 09:22:41.700 ,0,0,0.,4.8,3.,4.8,2.,4.8,1.,4.8
1979-08-05 09:22:46.500 ,0,0,0.,4.8,8.,4.8,1.,4.8,0.,4.8
1979-08-05 09:22:51.300 ,0,0,0.,4.8,7.,4.8,0.,4.8,0.,4.8
1979-08-05 09:22:56.100 ,0,0,0.,4.8,8.,4.8,1.,4.8,0.,4.8
1979-08-05 09:23:00.900 ,0,0,0.,4.8,9.,4.8,1.,4.8,0.,4.8
1979-08-05 09:23:05.700 ,0,0,0.,4.8,6.,4.8,0.,4.8,1.,4.8
1979-08-05 09:23:10.500 ,0,0,0.,4.8,10.,4.8,1.,4.8,1.,4.8
1979-08-05 09:23:15.300 ,0,0,0.,4.8,7.,4.8,0.,4.8,0.,4.8
1979-08-05 09:23:20.100 ,0,0,0.,4.8,4.,4.8,0.,4.8,0.,4.8
1979-08-05 09:23:24.900 ,0,0,0.,4.8,6.,4.8,0.,4.8,0.,4.8
1979-08-05 09:23:29.700 ,0,0,0.,4.8,7.,4.8,0.,4.8,0.,4.8
1979-08-05 09:23:34.500 ,0,0,0.,4.8,7.,4.8,1.,4.8,0.,4.8
1979-08-05 09:23:39.300 ,0,0,0.,4.8,7.,4.8,0.,4.8,0.,4.8
1979-08-05 09:23:44.100 ,0,0,0.,4.8,6.,4.8,0.,4.8,0.,4.8
1979-08-05 09:23:48.900 ,0,0,0.,4.8,10.,4.8,0.,4.8,1.,4.8
1979-08-05 09:23:53.700 ,0,0,0.,4.8,11.,4.8,0.,4.8,0.,4.8
1979-08-05 09:23:58.500 ,1,0,0.,4.8,5.,4.8,2.,4.8,0.,4.8
1979-08-05 09:24:03.300 ,1,0,0.,4.8,3.,4.8,1.,4.8,0.,4.8
1979-08-05 09:24:08.100 ,1,0,0.,4.8,12.,4.8,2.,4.8,2.,4.8
1979-08-05 09:24:12.900 ,1,0,0.,4.8,8.,4.8,1.,4.8,0.,4.8
1979-08-05 09:24:17.700 ,1,0,0.,4.8,8.,4.8,0.,4.8,0.,4.8
1979-08-05 09:24:22.500 ,1,0,0.,4.8,4.,4.8,1.,4.8,0.,4.8
1979-08-05 09:24:27.300 ,1,0,0.,4.8,5.,4.8,2.,4.8,0.,4.8
1979-08-05 09:24:32.100 ,1,0,0.,4.8,4.,4.8,2.,4.8,0.,4.8
1979-08-05 09:24:36.900 ,1,0,0.,4.8,5.,4.8,1.,4.8,0.,4.8
1979-08-05 09:24:41.700 ,1,0,0.,4.8,7.,4.8,2.,4.8,1.,4.8
1979-08-05 09:24:46.500 ,2,0,0.,4.8,4.,4.8,1.,4.8,1.,4.8
1979-08-05 09:24:51.300 ,2,0,0.,4.8,8.,4.8,1.,4.8,1.,4.8
1979-08-05 09:24:56.100 ,2,0,0.,4.8,5.,4.8,1.,4.8,0.,4.8
1979-08-05 09:25:00.900 ,2,0,0.,4.8,2.,4.8,0.,4.8,0.,4.8
1979-08-05 09:25:05.700 ,2,0,0.,4.8,2.,4.8,3.,4.8,2.,4.8
1979-08-05 09:25:10.500 ,2,0,0.,4.8,2.,4.8,0.,4.8,0.,4.8
1979-08-05 09:25:15.300 ,2,0,0.,4.8,3.,4.8,0.,4.8,0.,4.8
1979-08-05 09:25:20.100 ,2,0,0.,4.8,2.,4.8,1.,4.8,0.,4.8
1979-08-05 09:25:24.900 ,2,0,0.,4.8,6.,4.8,0.,4.8,2.,4.8
1979-08-05 09:25:29.700 ,2,0,0.,4.8,5.,4.8,1.,4.8,1.,4.8
1979-08-05 09:25:34.500 ,3,0,0.,4.8,6.,4.8,0.,4.8,1.,4.8
1979-08-05 09:25:39.300 ,3,0,0.,4.8,2.,4.8,1.,4.8,0.,4.8
1979-08-05 09:25:44.100 ,3,0,0.,4.8,3.,4.8,1.,4.8,1.,4.8
1979-08-05 09:25:48.900 ,3,0,0.,4.8,2.,4.8,0.,4.8,0.,4.8
1979-08-05 09:25:53.700 ,3,0,0.,4.8,3.,4.8,0.,4.8,0.,4.8
1979-08-05 09:25:58.500 ,3,0,0.,4.8,3.,4.8,1.,4.8,1.,4.8
1979-08-05 09:26:03.300 ,3,0,0.,4.8,3.,4.8,0.,4.8,0.,4.8
1979-08-05 09:26:08.100 ,3,0,0.,4.8,2.,4.8,0.,4.8,0.,4.8
1979-08-05 09:26:12.900 ,3,0,0.,4.8,2.,4.8,0.,4.8,0.,4.8
1979-08-05 09:26:17.700 ,3,0,0.,4.8,3.,4.8,3.,4.8,0.,4.8
1979-08-05 09:26:22.500 ,4,0,0.,4.8,2.,4.8,0.,4.8,0.,4.8
1979-08-05 09:26:27.300 ,4,0,0.,4.8,4.,4.8,1.,4.8,0.,4.8
1979-08-05 09:26:32.100 ,4,0,0.,4.8,1.,4.8,0.,4.8,0.,4.8
1979-08-05 09:26:36.900 ,4,0,0.,4.8,2.,4.8,0.,4.8,0.,4.8
1979-08-05 09:26:41.700 ,4,0,0.,4.8,2.,4.8,0.,4.8,2.,4.8
1979-08-05 09:26:46.500 ,4,0,0.,4.8,4.,4.8,0.,4.8,0.,4.8
1979-08-05 09:26:51.300 ,4,0,0.,4.8,2.,4.8,1.,4.8,0.,4.8
1979-08-05 09:26:56.100 ,4,0,0.,4.8,3.,4.8,0.,4.8,0.,4.8
1979-08-05 09:27:00.900 ,4,0,0.,4.8,3.,4.8,0.,4.8,0.,4.8
1979-08-05 09:27:05.700 ,4,0,0.,4.8,2.,4.8,0.,4.8,0.,4.8
1979-08-05 09:27:10.500 ,5,0,0.,4.8,2.,4.8,0.,4.8,0.,4.8
1979-08-05 09:27:15.300 ,5,0,0.,4.8,1.,4.8,0.,4.8,0.,4.8
1979-08-05 09:27:20.100 ,5,0,0.,4.8,4.,4.8,1.,4.8,0.,4.8
1979-08-05 09:27:24.900 ,5,0,0.,4.8,5.,4.8,2.,4.8,1.,4.8
1979-08-05 09:27:29.700 ,5,0,0.,4.8,4.,4.8,0.,4.8,0.,4.8
1979-08-05 09:27:34.500 ,5,0,0.,4.8,1.,4.8,1.,4.8,0.,4.8
1979-08-05 09:27:39.300 ,5,0,0.,4.8,3.,4.8,1.,4.8,1.,4.8
1979-08-05 09:27:44.100 ,5,0,0.,4.8,0.,4.8,0.,4.8,0.,4.8
1979-08-05 09:27:48.900 ,5,0,0.,4.8,2.,4.8,3.,4.8,0.,4.8
1979-08-05 09:27:53.700 ,5,0,0.,4.8,2.,4.8,0.,4.8,0.,4.8
1979-08-05 09:27:58.500 ,6,0,0.,4.8,2.,4.8,1.,4.8,1.,4.8
1979-08-05 09:28:03.300 ,6,0,0.,4.8,6.,4.8,0.,4.8,1.,4.8
1979-08-05 09:28:08.100 ,6,0,0.,4.8,2.,4.8,2.,4.8,1.,4.8
1979-08-05 09:28:12.900 ,6,0,0.,4.8,1.,4.8,0.,4.8,0.,4.8
1979-08-05 09:28:17.700 ,6,0,0.,4.8,4.,4.8,0.,4.8,0.,4.8
1979-08-05 09:28:22.500 ,6,0,0.,4.8,2.,4.8,0.,4.8,0.,4.8
1979-08-05 09:28:27.300 ,6,0,0.,4.8,2.,4.8,0.,4.8,0.,4.8
1979-08-05 09:28:32.100 ,6,0,0.,4.8,2.,4.8,2.,4.8,0.,4.8
1979-08-05 09:28:36.900 ,6,0,0.,4.8,4.,4.8,0.,4.8,0.,4.8
1979-08-05 09:28:41.700 ,6,0,0.,4.8,5.,4.8,0.,4.8,0.,4.8
1979-08-05 09:28:46.500 ,7,0,0.,4.8,6.,4.8,1.,4.8,1.,4.8
1979-08-05 09:28:51.300 ,7,0,0.,4.8,3.,4.8,0.,4.8,0.,4.8
1979-08-05 09:28:56.100 ,7,0,0.,4.8,0.,4.8,1.,4.8,1.,4.8
1979-08-05 09:29:00.900 ,7,0,0.,4.8,0.,4.8,0.,4.8,0.,4.8
1979-08-05 09:29:05.700 ,7,0,0.,4.8,0.,4.8,0.,4.8,1.,4.8
1979-08-05 09:29:10.500 ,7,0,0.,4.8,0.,4.8,0.,4.8,0.,4.8
1979-08-05 09:29:15.300 ,7,0,0.,4.8,3.,4.8,0.,4.8,0.,4.8
1979-08-05 09:29:20.100 ,7,0,0.,4.8,0.,4.8,1.,4.8,0.,4.8
1979-08-05 09:29:24.900 ,7,0,0.,4.8,0.,4.8,0.,4.8,0.,4.8
1979-08-05 09:29:29.700 ,7,0,0.,4.8,1.,4.8,0.,4.8,0.,4.8
1979-08-05 09:29:34.500 ,7,0,0.,4.8,0.,4.8,0.,4.8,0.,4.8
1979-08-05 09:29:39.300 ,7,0,0.,4.8,0.,4.8,0.,4.8,0.,4.8
1979-08-05 09:29:44.100 ,7,0,0.,4.8,1.,4.8,2.,4.8,0.,4.8
1979-08-05 09:29:48.900 ,7,0,0.,4.8,1.,4.8,0.,4.8,0.,4.8
1979-08-05 09:29:53.700 ,7,0,0.,4.8,0.,4.8,0.,4.8,0.,4.8
1979-08-05 09:29:58.500 ,7,0,0.,4.8,0.,4.8,0.,4.8,0.,4.8
1979-08-05 09:30:03.300 ,7,0,0.,4.8,0.,4.8,0.,4.8,0.,4.8
1979-08-05 09:30:08.100 ,7,0,0.,4.8,0.,4.8,0.,4.8,0.,4.8
1979-08-05 09:30:12.900 ,7,0,0.,4.8,1.,4.8,0.,4.8,0.,4.8
1979-08-05 09:30:17.700 ,7,0,0.,4.8,1.,4.8,0.,4.8,0.,4.8
1979-08-05 09:30:22.500 ,6,0,0.,4.8,0.,4.8,0.,4.8,0.,4.8
1979-08-05 09:30:27.300 ,6,0,0.,4.8,0.,4.8,0.,4.8,2.,4.8
1979-08-05 09:30:32.100 ,6,0,0.,4.8,4.,4.8,0.,4.8,0.,4.8
1979-08-05 09:30:36.900 ,6,0,0.,4.8,4.,4.8,1.,4.8,0.,4.8
1979-08-05 09:30:41.700 ,6,0,0.,4.8,1.,4.8,1.,4.8,2.,4.8
1979-08-05 09:30:46.500 ,6,0,0.,4.8,2.,4.8,2.,4.8,1.,4.8
1979-08-05 09:30:51.300 ,6,0,0.,4.8,3.,4.8,0.,4.8,0.,4.8
1979-08-05 09:30:56.100 ,6,0,0.,4.8,3.,4.8,2.,4.8,1.,4.8
1979-08-05 09:31:00.900 ,6,0,0.,4.8,0.,4.8,0.,4.8,0.,4.8
1979-08-05 09:31:05.700 ,6,0,0.,4.8,5.,4.8,1.,4.8,0.,4.8
1979-08-05 09:31:10.500 ,5,0,0.,4.8,3.,4.8,0.,4.8,0.,4.8
1979-08-05 09:31:15.300 ,5,0,0.,4.8,1.,4.8,1.,4.8,0.,4.8
1979-08-05 09:31:20.100 ,5,0,0.,4.8,0.,4.8,0.,4.8,0.,4.8
1979-08-05 09:31:24.900 ,5,0,0.,4.8,2.,4.8,0.,4.8,0.,4.8
1979-08-05 09:31:29.700 ,5,0,0.,4.8,0.,4.8,0.,4.8,0.,4.8
1979-08-05 09:31:34.500 ,5,0,0.,4.8,1.,4.8,0.,4.8,0.,4.8
1979-08-05 09:31:39.300 ,5,0,0.,4.8,1.,4.8,0.,4.8,0.,4.8
1979-08-05 09:31:44.100 ,5,0,0.,4.8,2.,4.8,0.,4.8,0.,4.8
1979-08-05 09:31:48.900 ,5,0,0.,4.8,1.,4.8,0.,4.8,0.,4.8
1979-08-05 09:31:53.700 ,5,0,0.,4.8,0.,4.8,1.,4.8,0.,4.8
1979-08-05 09:31:58.500 ,4,0,0.,4.8,1.,4.8,0.,4.8,0.,4.8
1979-08-05 09:32:03.300 ,4,0,0.,4.8,3.,4.8,0.,4.8,0.,4.8
1979-08-05 09:32:08.100 ,4,0,0.,4.8,3.,4.8,0.,4.8,1.,4.8
1979-08-05 09:32:12.900 ,4,0,0.,4.8,3.,4.8,0.,4.8,0.,4.8
1979-08-05 09:32:17.700 ,4,0,0.,4.8,4.,4.8,0.,4.8,0.,4.8
1979-08-05 09:32:22.500 ,4,0,0.,4.8,3.,4.8,1.,4.8,0.,4.8
1979-08-05 09:32:27.300 ,4,0,0.,4.8,3.,4.8,0.,4.8,2.,4.8
1979-08-05 09:32:32.100 ,4,0,0.,4.8,1.,4.8,0.,4.8,0.,4.8
1979-08-05 09:32:36.900 ,4,0,0.,4.8,0.,4.8,0.,4.8,0.,4.8
1979-08-05 09:32:41.700 ,4,0,0.,4.8,1.,4.8,0.,4.8,0.,4.8
1979-08-05 09:32:46.500 ,3,0,0.,4.8,0.,4.8,1.,4.8,1.,4.8
1979-08-05 09:32:51.300 ,3,0,0.,4.8,2.,4.8,0.,4.8,1.,4.8
1979-08-05 09:32:56.100 ,3,0,0.,4.8,3.,4.8,2.,4.8,0.,4.8
1979-08-05 09:33:00.900 ,3,0,0.,4.8,1.,4.8,1.,4.8,0.,4.8
1979-08-05 09:33:05.700 ,3,0,0.,4.8,1.,4.8,0.,4.8,0.,4.8
1979-08-05 09:33:10.500 ,3,0,0.,4.8,2.,4.8,1.,4.8,0.,4.8
1979-08-05 09:33:15.300 ,3,0,0.,4.8,3.,4.8,1.,4.8,0.,4.8